Time,TemperatureF,DewpointF,PressureIn,WindDirection,WindDirectionDegrees,WindSpeedMPH,WindSpeedGustMPH,Humidity,HourlyPrecipIn,Conditions,Clouds,dailyrainin,SoftwareType,DateUTC
2013-05-19 14:33:00,81.5,70.6,29.99,WSW,248,1.9,2.5,69,0.00,,,0.00,WUHU216TE923,2013-05-19 18:33:00,
2013-05-19 14:38:00,81.5,70.2,29.98,ESE,113,1.9,2.5,68,0.00,,,0.00,WUHU216TE923,2013-05-19 18:38:00,
2013-05-19 14:43:00,81.1,69.3,29.98,WSW,248,2.3,3.0,67,0.00,,,0.00,WUHU216TE923,2013-05-19 18:43:00,
2013-05-19 14:48:00,80.4,69.1,29.98,West,270,2.5,3.0,68,0.00,,,0.00,WUHU216TE923,2013-05-19 18:48:00,
2013-05-19 14:53:00,80.6,69.7,29.98,WSW,248,2.3,3.3,69,0.00,,,0.00,WUHU216TE923,2013-05-19 18:53:00,
2013-05-19 14:58:00,81.3,71.2,29.97,WSW,248,1.8,3.3,71,0.00,,,0.00,WUHU216TE923,2013-05-19 18:58:00,
2013-05-19 15:03:00,81.5,70.6,29.97,WSW,248,1.8,2.0,69,0.00,,,0.00,WUHU216TE923,2013-05-19 19:03:00,
2013-05-19 15:08:00,81.3,70.4,29.97,WSW,248,1.9,1.9,69,0.00,,,0.00,WUHU216TE923,2013-05-19 19:08:00,
2013-05-19 15:13:00,81.3,70.4,29.97,WSW,248,2.0,2.4,69,0.00,,,0.00,WUHU216TE923,2013-05-19 19:13:00,
2013-05-19 15:18:00,81.5,70.6,29.96,NNW,338,2.0,2.4,69,0.00,,,0.00,WUHU216TE923,2013-05-19 19:18:00,
2013-05-19 15:23:00,81.5,70.6,29.96,West,270,1.6,3.8,69,0.00,,,0.00,WUHU216TE923,2013-05-19 19:23:00,
2013-05-19 15:28:00,81.5,70.2,29.96,SW,225,1.8,3.8,68,0.00,,,0.00,WUHU216TE923,2013-05-19 19:28:00,
2013-05-19 15:33:00,81.5,70.2,29.96,SSW,203,2.1,2.1,68,0.00,,,0.00,WUHU216TE923,2013-05-19 19:33:00,
2013-05-19 15:38:00,81.7,69.9,29.97,NW,315,2.2,3.3,67,0.00,,,0.00,WUHU216TE923,2013-05-19 19:38:00,
2013-05-19 15:43:00,81.5,70.2,29.97,West,270,2.3,3.3,68,0.00,,,0.00,WUHU216TE923,2013-05-19 19:43:00,
2013-05-19 15:48:00,81.5,70.2,29.97,WSW,248,1.9,2.3,68,0.00,,,0.00,WUHU216TE923,2013-05-19 19:48:00,
2013-05-19 15:53:00,81.5,70.2,29.97,WNW,293,1.7,2.3,68,0.00,,,0.00,WUHU216TE923,2013-05-19 19:53:00,
2013-05-19 15:58:00,81.5,70.2,29.95,West,270,1.7,1.7,68,0.00,,,0.00,WUHU216TE923,2013-05-19 19:58:00,
2013-05-19 16:03:00,81.5,70.6,29.95,WSW,248,1.2,1.7,69,0.00,,,0.00,WUHU216TE923,2013-05-19 20:03:00,
2013-05-19 16:08:00,81.5,70.2,29.95,WSW,248,1.1,2.0,68,0.00,,,0.00,WUHU216TE923,2013-05-19 20:08:00,
2013-05-19 16:13:00,81.5,69.7,29.95,SSW,203,1.8,3.0,67,0.00,,,0.00,WUHU216TE923,2013-05-19 20:13:00,
2013-05-19 16:18:00,81.9,70.1,29.95,WSW,248,1.9,3.0,67,0.00,,,0.00,WUHU216TE923,2013-05-19 20:18:00,
2013-05-19 16:23:00,81.7,69.5,29.95,WSW,248,1.5,3.3,66,0.00,,,0.00,WUHU216TE923,2013-05-19 20:23:00,
2013-05-19 16:28:00,81.7,68.6,29.95,South,180,2.3,3.3,64,0.00,,,0.00,WUHU216TE923,2013-05-19 20:28:00,
2013-05-19 16:33:00,81.9,69.7,29.95,WSW,248,2.3,2.7,66,0.00,,,0.00,WUHU216TE923,2013-05-19 20:33:00,
2013-05-19 16:38:00,81.5,69.3,29.93,SW,225,1.4,2.3,66,0.00,,,0.00,WUHU216TE923,2013-05-19 20:38:00,
2013-05-19 16:43:00,81.5,68.4,29.93,West,270,1.6,2.8,64,0.00,,,0.00,WUHU216TE923,2013-05-19 20:43:00,
2013-05-19 16:48:00,81.5,69.3,29.93,West,270,2.0,2.8,66,0.00,,,0.00,WUHU216TE923,2013-05-19 20:48:00,
2013-05-19 16:53:00,81.5,68.9,29.93,SW,225,2.0,3.4,65,0.00,,,0.00,WUHU216TE923,2013-05-19 20:53:00,
2013-05-19 16:58:00,81.5,69.3,29.94,West,270,1.6,3.4,66,0.00,,,0.00,WUHU216TE923,2013-05-19 20:58:00,
2013-05-19 17:03:00,81.5,69.7,29.94,NW,315,1.1,1.6,67,0.00,,,0.00,WUHU216TE923,2013-05-19 21:03:00,
2013-05-19 17:08:00,81.5,69.3,29.94,SW,225,1.2,1.4,66,0.00,,,0.00,WUHU216TE923,2013-05-19 21:08:00,
2013-05-19 17:13:00,81.5,70.2,29.94,SW,225,1.8,3.5,68,0.00,,,0.00,WUHU216TE923,2013-05-19 21:13:00,
2013-05-19 17:18:00,81.1,70.2,29.94,West,270,2.3,3.5,69,0.00,,,0.00,WUHU216TE923,2013-05-19 21:18:00,
2013-05-19 17:23:00,81.0,70.1,29.94,West,270,2.3,3.5,69,0.00,,,0.00,WUHU216TE923,2013-05-19 21:23:00,
2013-05-19 17:28:00,80.6,70.1,29.94,WSW,248,1.5,2.5,70,0.00,,,0.00,WUHU216TE923,2013-05-19 21:28:00,
2013-05-19 17:33:00,80.6,70.1,29.94,WSW,248,1.5,2.5,70,0.00,,,0.00,WUHU216TE923,2013-05-19 21:33:00,
2013-05-19 17:38:00,80.4,70.4,29.95,WSW,248,0.4,1.2,71,0.00,,,0.00,WUHU216TE923,2013-05-19 21:38:00,
2013-05-19 17:43:00,80.4,70.4,29.95,WSW,248,0.4,1.2,71,0.00,,,0.00,WUHU216TE923,2013-05-19 21:43:00,
2013-05-19 17:48:00,80.1,70.5,29.95,SW,225,1.1,1.3,72,0.00,,,0.00,WUHU216TE923,2013-05-19 21:48:00,
2013-05-19 17:53:00,80.1,70.5,29.95,SW,225,1.1,1.3,72,0.00,,,0.00,WUHU216TE923,2013-05-19 21:53:00,
2013-05-19 17:58:00,79.5,70.7,29.94,WSW,248,0.7,1.6,74,0.00,,,0.00,WUHU216TE923,2013-05-19 21:58:00,
2013-05-19 18:03:00,79.5,70.7,29.94,WSW,248,0.7,1.6,74,0.00,,,0.00,WUHU216TE923,2013-05-19 22:03:00,
2013-05-19 18:08:00,79.3,70.5,29.94,NE,45,1.1,3.4,74,0.00,,,0.00,WUHU216TE923,2013-05-19 22:08:00,
2013-05-19 18:13:00,79.3,70.5,29.94,NE,45,1.1,3.4,74,0.00,,,0.00,WUHU216TE923,2013-05-19 22:13:00,
2013-05-19 18:18:00,79.0,70.6,29.94,WSW,248,1.6,2.1,75,0.00,,,0.00,WUHU216TE923,2013-05-19 22:18:00,
2013-05-19 18:23:00,79.0,70.6,29.94,WSW,248,1.6,2.1,75,0.00,,,0.00,WUHU216TE923,2013-05-19 22:23:00,
2013-05-19 18:28:00,78.6,70.6,29.94,West,270,1.1,2.9,76,0.00,,,0.00,WUHU216TE923,2013-05-19 22:28:00,
2013-05-19 18:33:00,78.6,70.6,29.94,West,270,1.1,2.9,76,0.00,,,0.00,WUHU216TE923,2013-05-19 22:33:00,
2013-05-19 18:38:00,78.4,70.4,29.94,WSW,248,1.8,2.4,76,0.00,,,0.00,WUHU216TE923,2013-05-19 22:38:00,
2013-05-19 18:43:00,78.4,70.4,29.94,WSW,248,1.8,2.4,76,0.00,,,0.00,WUHU216TE923,2013-05-19 22:43:00,
2013-05-19 18:48:00,78.1,70.1,29.94,SW,225,2.8,3.2,76,0.00,,,0.00,WUHU216TE923,2013-05-19 22:48:00,
2013-05-19 18:53:00,78.1,70.1,29.94,SW,225,2.8,3.2,76,0.00,,,0.00,WUHU216TE923,2013-05-19 22:53:00,
2013-05-19 18:58:00,77.9,70.3,29.95,SSW,203,2.3,3.4,77,0.00,,,0.00,WUHU216TE923,2013-05-19 22:58:00,
2013-05-19 19:03:00,77.9,70.3,29.95,SSW,203,2.3,3.4,77,0.00,,,0.00,WUHU216TE923,2013-05-19 23:03:00,
2013-05-19 19:08:00,77.7,70.1,29.95,WSW,248,2.4,2.9,77,0.00,,,0.00,WUHU216TE923,2013-05-19 23:08:00,
2013-05-19 19:13:00,77.7,70.1,29.95,WSW,248,2.4,2.9,77,0.00,,,0.00,WUHU216TE923,2013-05-19 23:13:00,
2013-05-19 19:18:00,77.5,70.2,29.94,West,270,2.2,2.6,78,0.00,,,0.00,WUHU216TE923,2013-05-19 23:18:00,
2013-05-19 19:23:00,77.5,70.2,29.94,West,270,2.2,2.6,78,0.00,,,0.00,WUHU216TE923,2013-05-19 23:23:00,
2013-05-19 19:28:00,77.4,70.1,29.94,West,270,2.2,3.0,78,0.00,,,0.00,WUHU216TE923,2013-05-19 23:28:00,
2013-05-19 19:33:00,77.4,70.1,29.94,West,270,2.2,3.0,78,0.00,,,0.00,WUHU216TE923,2013-05-19 23:33:00,
2013-05-19 19:38:00,77.2,70.3,29.94,WSW,248,2.2,2.7,79,0.00,,,0.00,WUHU216TE923,2013-05-19 23:38:00,
2013-05-19 19:43:00,77.2,70.3,29.94,WSW,248,2.2,2.7,79,0.00,,,0.00,WUHU216TE923,2013-05-19 23:43:00,
2013-05-19 19:48:00,77.2,70.3,29.94,West,270,2.3,3.3,79,0.00,,,0.00,WUHU216TE923,2013-05-19 23:48:00,
2013-05-19 19:53:00,77.2,70.3,29.94,West,270,2.3,3.3,79,0.00,,,0.00,WUHU216TE923,2013-05-19 23:53:00,
2013-05-19 19:57:00,76.8,70.3,29.95,West,270,1.8,2.4,80,0.00,,,0.00,WUHU216TE923,2013-05-19 23:57:00,
2013-05-19 20:02:00,76.8,70.3,29.95,West,270,1.8,2.4,80,0.00,,,0.00,WUHU216TE923,2013-05-20 00:02:00,
2013-05-19 20:07:00,76.8,70.3,29.95,WSW,248,1.6,1.9,80,0.00,,,0.00,WUHU216TE923,2013-05-20 00:07:00,
2013-05-19 20:12:00,76.8,70.3,29.95,WSW,248,1.6,1.9,80,0.00,,,0.00,WUHU216TE923,2013-05-20 00:12:00,
2013-05-19 20:17:00,76.6,70.4,29.95,West,270,1.4,2.2,81,0.00,,,0.00,WUHU216TE923,2013-05-20 00:17:00,
2013-05-19 20:22:00,76.6,70.4,29.95,West,270,1.4,2.2,81,0.00,,,0.00,WUHU216TE923,2013-05-20 00:22:00,
2013-05-19 20:27:00,76.5,70.3,29.95,West,270,1.4,1.4,81,0.00,,,0.00,WUHU216TE923,2013-05-20 00:27:00,
2013-05-19 20:32:00,76.5,70.3,29.95,West,270,1.4,1.4,81,0.00,,,0.00,WUHU216TE923,2013-05-20 00:32:00,
2013-05-19 20:37:00,76.1,69.9,29.95,SW,225,0.3,1.0,81,0.00,,,0.00,WUHU216TE923,2013-05-20 00:37:00,
2013-05-19 20:42:00,76.1,69.9,29.95,SW,225,0.3,1.0,81,0.00,,,0.00,WUHU216TE923,2013-05-20 00:42:00,
2013-05-19 20:47:00,75.9,70.1,29.95,SW,225,0.0,0.0,82,0.00,,,0.00,WUHU216TE923,2013-05-20 00:47:00,
2013-05-19 20:52:00,75.9,70.1,29.95,SW,225,0.0,0.0,82,0.00,,,0.00,WUHU216TE923,2013-05-20 00:52:00,
2013-05-19 20:57:00,75.6,69.8,29.94,SW,225,0.1,1.2,82,0.00,,,0.00,WUHU216TE923,2013-05-20 00:57:00,
2013-05-19 21:02:00,75.6,69.8,29.94,SW,225,0.1,1.2,82,0.00,,,0.00,WUHU216TE923,2013-05-20 01:02:00,
2013-05-19 21:07:00,75.6,69.8,29.94,SW,225,0.2,0.2,82,0.00,,,0.00,WUHU216TE923,2013-05-20 01:07:00,
2013-05-19 21:12:00,75.6,69.8,29.94,SW,225,0.2,0.2,82,0.00,,,0.00,WUHU216TE923,2013-05-20 01:12:00,
2013-05-19 21:17:00,75.2,69.7,29.95,SSW,203,0.1,1.0,83,0.00,,,0.00,WUHU216TE923,2013-05-20 01:17:00,
2013-05-19 21:22:00,75.2,69.7,29.95,SSW,203,0.1,1.0,83,0.00,,,0.00,WUHU216TE923,2013-05-20 01:22:00,
2013-05-19 21:27:00,75.2,69.7,29.95,WSW,248,0.3,0.3,83,0.00,,,0.00,WUHU216TE923,2013-05-20 01:27:00,
2013-05-19 21:32:00,75.2,69.7,29.95,WSW,248,0.3,0.3,83,0.00,,,0.00,WUHU216TE923,2013-05-20 01:32:00,
2013-05-19 21:37:00,74.8,69.4,29.95,WSW,248,0.2,1.1,83,0.00,,,0.00,WUHU216TE923,2013-05-20 01:37:00,
2013-05-19 21:42:00,74.8,69.4,29.95,WSW,248,0.2,1.1,83,0.00,,,0.00,WUHU216TE923,2013-05-20 01:42:00,
2013-05-19 21:47:00,74.7,69.6,29.95,West,270,1.7,3.0,84,0.00,,,0.00,WUHU216TE923,2013-05-20 01:47:00,
2013-05-19 21:52:00,74.7,69.6,29.95,West,270,1.7,3.0,84,0.00,,,0.00,WUHU216TE923,2013-05-20 01:52:00,
2013-05-19 21:57:00,74.5,68.7,29.96,WNW,293,2.7,3.6,82,0.00,,,0.00,WUHU216TE923,2013-05-20 01:57:00,
2013-05-19 22:02:00,74.5,68.7,29.96,WNW,293,2.7,3.6,82,0.00,,,0.00,WUHU216TE923,2013-05-20 02:02:00,
2013-05-19 22:07:00,74.5,68.7,29.96,West,270,2.7,3.8,82,0.00,,,0.00,WUHU216TE923,2013-05-20 02:07:00,
2013-05-19 22:12:00,74.5,68.7,29.96,West,270,2.7,3.8,82,0.00,,,0.00,WUHU216TE923,2013-05-20 02:12:00,
2013-05-19 22:17:00,74.1,68.3,29.96,West,270,2.8,3.9,82,0.00,,,0.00,WUHU216TE923,2013-05-20 02:17:00,
2013-05-19 22:22:00,74.1,68.3,29.96,West,270,2.8,3.9,82,0.00,,,0.00,WUHU216TE923,2013-05-20 02:22:00,
2013-05-19 22:27:00,73.9,68.1,29.96,SW,225,2.8,3.3,82,0.00,,,0.00,WUHU216TE923,2013-05-20 02:27:00,
2013-05-19 22:32:00,73.9,68.1,29.96,SW,225,2.8,3.3,82,0.00,,,0.00,WUHU216TE923,2013-05-20 02:32:00,
2013-05-19 22:37:00,73.8,68.4,29.97,SW,225,2.1,3.5,83,0.00,,,0.00,WUHU216TE923,2013-05-20 02:37:00,
2013-05-19 22:42:00,73.8,68.4,29.97,SW,225,2.1,3.5,83,0.00,,,0.00,WUHU216TE923,2013-05-20 02:42:00,
2013-05-19 22:47:00,73.6,68.2,29.97,SW,225,2.8,4.5,83,0.00,,,0.00,WUHU216TE923,2013-05-20 02:47:00,
2013-05-19 22:52:00,73.6,68.2,29.97,SW,225,2.8,4.5,83,0.00,,,0.00,WUHU216TE923,2013-05-20 02:52:00,
2013-05-19 22:57:00,73.0,67.6,29.97,West,270,2.9,3.2,83,0.00,,,0.00,WUHU216TE923,2013-05-20 02:57:00,
2013-05-19 23:02:00,73.0,67.6,29.97,West,270,2.9,3.2,83,0.00,,,0.00,WUHU216TE923,2013-05-20 03:02:00,
2013-05-19 23:07:00,72.9,67.1,29.97,WSW,248,2.8,4.4,82,0.00,,,0.00,WUHU216TE923,2013-05-20 03:07:00,
2013-05-19 23:12:00,72.9,67.1,29.97,WSW,248,2.8,4.4,82,0.00,,,0.00,WUHU216TE923,2013-05-20 03:12:00,
2013-05-19 23:17:00,72.9,67.1,29.98,WSW,248,2.7,2.9,82,0.00,,,0.00,WUHU216TE923,2013-05-20 03:17:00,
2013-05-19 23:22:00,72.9,67.1,29.98,WSW,248,2.7,2.9,82,0.00,,,0.00,WUHU216TE923,2013-05-20 03:22:00,
2013-05-19 23:27:00,72.5,66.8,29.98,WSW,248,2.5,3.4,82,0.00,,,0.00,WUHU216TE923,2013-05-20 03:27:00,
2013-05-19 23:32:00,72.5,66.8,29.98,WSW,248,2.5,3.4,82,0.00,,,0.00,WUHU216TE923,2013-05-20 03:32:00,
2013-05-19 23:37:00,72.3,66.6,29.97,SW,225,2.4,3.5,82,0.00,,,0.00,WUHU216TE923,2013-05-20 03:37:00,
2013-05-19 23:42:00,72.3,66.6,29.97,SW,225,2.4,3.5,82,0.00,,,0.00,WUHU216TE923,2013-05-20 03:42:00,
2013-05-19 23:47:00,72.1,66.7,29.97,WSW,248,2.0,2.6,83,0.00,,,0.00,WUHU216TE923,2013-05-20 03:47:00,
2013-05-19 23:52:00,72.1,66.7,29.97,WSW,248,2.0,2.6,83,0.00,,,0.00,WUHU216TE923,2013-05-20 03:52:00,
2013-05-19 23:57:00,72.1,66.7,29.97,WNW,293,1.6,2.9,83,0.00,,,0.00,WUHU216TE923,2013-05-20 03:57:00,